Location: Earls Croome
(52.0667°N, 2.2000°W)
Time: 12:43:19
(UTC+00:00)

COSMOS 2455 - Pass Details

Date: 23 February 2020
Orbit: 901 x 909 km, 67.2° (Epoch: 05 April)

Event Time Altitude Azimuth Distance (km) Brightness Sun altitude
Exits shadow 03:29:38 16° 341° (NNW) 2,177 4.9 -33.5°
Maximum altitude 03:32:16 21° 14° (NNE) 1,920 4.9 -33.1°
Drops below altitude 10° 03:36:45 10° 62° (ENE) 2,600 6.1 -32.5°
Sets 03:39:56 0° 79° (ENE) 3,540 6.9 -32.1°
